Sparta, IL

7:24 PM CST on December 07, 2019 (GMT -0600)
Sparta Community-Hunter

Weather History for KSAR - November, 2019

Change the Weather History Date:

Friday, November 22, 2019

  Actual Average (KBLV) Record (KBLV)
Temperature  
Mean Temperature 39 °F -  
Max Temperature 42 °F 52 °F 72 °F (2010)
Min Temperature 36 °F 32 °F 11 °F (1964)
Degree Days  
Heating Degree Days 26    
Moisture  
Dew Point 36 °F    
Average Humidity 88    
Maximum Humidity 98    
Minimum Humidity 75    
Precipitation  
Precipitation 0.02 in - - ()
Sea Level Pressure  
Sea Level Pressure 30.13 in    
Wind  
Wind Speed 7 mph ()    
Max Wind Speed 12 mph    
Max Gust Speed 17 mph    
Visibility 10.0 miles    
Events Rain    
Averages and records for this station are not official NWS values.
T = Trace of Precipitation, MM = Missing Value Source: Averaged Metar Reports

Daily Weather History Graph

Daily Weather History Graph

Search for Another Location

Airport or City:

Astronomy

Nov. 22, 2019 Rise Set
Actual Time 6:47 AM CST 4:42 PM CST
Civil Twilight 6:18 AM CST 5:10 PM CST
Nautical Twilight 5:46 AM CST 5:43 PM CST
Astronomical Twilight 5:14 AM CST 6:14 PM CST
Moon 1:58 AM CST (11/22) 2:38 PM CST (11/22)
Length of Visible Light 10h 52m
Length of Day
9h 55m
Waning Crescent, 19% of the Moon is Illuminated
Nov 22
Waning Crescent
Nov 26
New
Dec 4
First Quarter
Dec 11
Full
Dec 18
Last Quarter

Hourly Weather History & Observations

Time (CST) Temp. Windchill Dew Point Humidity Pressure Visibility Wind Dir Wind Speed Gust Speed Precip Events Conditions
12:15 AM 42.1 °F 37.1 °F 41.5 °F 98% 30.08 in 10.0 mi North 8.1 mph 17.3 mph N/A   Light Drizzle
12:55 AM 42.1 °F 37.1 °F 41.2 °F 97% 30.09 in 10.0 mi NNW 8.1 mph - N/A   Light Drizzle
1:15 AM 41.9 °F 36.9 °F 40.3 °F 94% 30.08 in 10.0 mi North 8.1 mph 17.3 mph N/A   Light Drizzle
1:35 AM 41.4 °F 36.8 °F 39.2 °F 92% 30.13 in 10.0 mi North 6.9 mph - N/A Rain Light Rain
1:55 AM 41.0 °F 39.0 °F 39.6 °F 95% 30.14 in 10.0 mi NNW 3.5 mph - 0.02 in Rain Rain
2:15 AM 40.5 °F 36.5 °F 39.4 °F 96% 30.12 in 10.0 mi North 5.8 mph - N/A Rain Rain
2:35 AM 40.5 °F 36.5 °F 39.6 °F 97% 30.12 in 10.0 mi NNW 5.8 mph - N/A Rain Light Rain
2:55 AM 40.1 °F 35.3 °F 39.6 °F 98% 30.12 in 10.0 mi NNW 6.9 mph - N/A   Overcast
3:15 AM 39.9 °F 33.9 °F 38.8 °F 96% 30.12 in 10.0 mi North 9.2 mph - N/A   Overcast
3:35 AM 39.6 °F 32.5 °F 38.7 °F 97% 30.13 in 10.0 mi North 11.5 mph 16.1 mph N/A   Overcast
3:55 AM 39.2 °F 33.6 °F 38.1 °F 96% 30.12 in 10.0 mi North 8.1 mph - N/A   Overcast
4:15 AM 38.7 °F 31.4 °F 37.6 °F 96% 30.12 in 10.0 mi North 11.5 mph - N/A   Overcast
4:35 AM 38.5 °F 31.6 °F 37.4 °F 96% 30.12 in 10.0 mi North 10.4 mph - N/A   Overcast
4:55 AM 38.5 °F 33.4 °F 37.4 °F 96% 30.12 in 10.0 mi North 6.9 mph - N/A   Overcast
5:15 AM 38.5 °F 32.7 °F 37.4 °F 96% 30.15 in 10.0 mi North 8.1 mph - N/A   Overcast
5:35 AM 38.3 °F 32.5 °F 36.5 °F 93% 30.13 in 10.0 mi North 8.1 mph - N/A   Overcast
5:55 AM 38.3 °F 32.5 °F 36.9 °F 95% 30.14 in 10.0 mi North 8.1 mph - N/A   Overcast
6:15 AM 37.8 °F 31.8 °F 35.1 °F 90% 30.16 in 10.0 mi North 8.1 mph - N/A   Overcast
6:35 AM 37.6 °F 31.0 °F 35.1 °F 91% 30.16 in 10.0 mi North 9.2 mph - N/A   Overcast
6:55 AM 37.4 °F 31.4 °F 34.7 °F 90% 30.16 in 10.0 mi North 8.1 mph - N/A   Overcast
7:15 AM 37.4 °F 31.4 °F 34.7 °F 90% 30.17 in 10.0 mi North 8.1 mph - N/A   Overcast
7:35 AM 37.4 °F 30.3 °F 34.9 °F 91% 30.18 in 10.0 mi North 10.4 mph - N/A   Overcast
7:55 AM 37.4 °F 30.8 °F 34.9 °F 91% 30.18 in 10.0 mi North 9.2 mph - N/A   Overcast
8:15 AM 37.4 °F 30.3 °F 34.9 °F 91% 30.18 in 10.0 mi North 10.4 mph - N/A   Overcast
8:35 AM 37.4 °F 32.8 °F 34.9 °F 91% 30.19 in 10.0 mi North 5.8 mph - N/A   Overcast
8:55 AM 37.6 °F 31.6 °F 35.1 °F 91% 30.20 in 10.0 mi North 8.1 mph - N/A   Overcast
9:15 AM 38.3 °F 33.2 °F 35.6 °F 90% 30.21 in 10.0 mi North 6.9 mph - N/A   Overcast
9:35 AM 38.7 °F 33.6 °F 35.8 °F 89% 30.22 in 10.0 mi NNW 6.9 mph - N/A   Overcast
9:55 AM 39.2 °F 33.6 °F 35.2 °F 86% 30.22 in 10.0 mi North 8.1 mph - N/A   Overcast
10:15 AM 39.2 °F 33.0 °F 34.7 °F 84% 30.21 in 10.0 mi NNE 9.2 mph - N/A   Overcast
10:35 AM 38.8 °F 32.1 °F 34.9 °F 86% 30.20 in 10.0 mi NNE 10.4 mph - N/A   Overcast
10:55 AM 39.6 °F 33.0 °F 34.7 °F 83% 30.19 in 10.0 mi NNE 10.4 mph 16.1 mph N/A   Overcast
11:15 AM 39.6 °F 34.7 °F 34.5 °F 82% 30.20 in 10.0 mi North 6.9 mph - N/A   Overcast
11:35 AM 39.7 °F 33.7 °F 34.3 °F 81% 30.17 in 10.0 mi NNE 9.2 mph - N/A   Overcast
11:55 AM 40.1 °F 33.6 °F 34.3 °F 80% 30.17 in 10.0 mi NE 10.4 mph - N/A   Overcast
12:15 PM 40.3 °F 35.5 °F 34.2 °F 79% 30.18 in 10.0 mi North 6.9 mph - N/A   Overcast
12:35 PM 40.3 °F 35.5 °F 34.0 °F 78% 30.17 in 10.0 mi NNE 6.9 mph - N/A   Overcast
12:55 PM 40.5 °F 37.3 °F 33.8 °F 77% 30.16 in 10.0 mi North 4.6 mph - N/A   Overcast
1:15 PM 41.4 °F 37.6 °F 34.3 °F 76% 30.16 in 10.0 mi NNE 5.8 mph - N/A   Overcast
1:35 PM 41.0 °F 37.1 °F 34.3 °F 77% 30.14 in 10.0 mi NE 5.8 mph - N/A   Mostly Cloudy
1:55 PM 41.9 °F 35.9 °F 34.5 °F 75% 30.13 in 10.0 mi NNE 10.4 mph - N/A   Scattered Clouds
2:15 PM 41.5 °F 37.1 °F 34.9 °F 77% 30.13 in 10.0 mi NNE 6.9 mph - N/A   Scattered Clouds
2:35 PM 41.4 °F 36.2 °F 34.7 °F 77% 30.12 in 10.0 mi NNE 8.1 mph - N/A   Scattered Clouds
2:55 PM 41.2 °F 35.5 °F 34.7 °F 78% 30.11 in 10.0 mi NNE 9.2 mph - N/A   Clear
3:15 PM 41.4 °F 35.2 °F 34.5 °F 77% 30.09 in 10.0 mi NNE 10.4 mph - N/A   Clear
3:35 PM 41.2 °F 38.2 °F 34.5 °F 77% 30.11 in 10.0 mi NNE 4.6 mph - N/A   Clear
3:55 PM 41.0 °F 37.1 °F 34.2 °F 77% 30.12 in 10.0 mi NNE 5.8 mph - N/A   Clear
4:30 PM 39.2 °F 34.2 °F 34.7 °F 84% 30.09 in 10.0 mi ENE 6.9 mph - N/A   Clear
4:55 PM 38.7 °F 35.2 °F 34.2 °F 84% 30.09 in 10.0 mi NNE 4.6 mph - N/A   Clear
5:15 PM 37.8 °F 34.2 °F 34.0 °F 86% 30.10 in 10.0 mi North 4.6 mph - N/A   Clear
5:35 PM 38.1 °F 34.6 °F 34.0 °F 85% 30.11 in 10.0 mi NNW 4.6 mph - N/A   Clear
5:55 PM 37.6 °F 34.0 °F 34.3 °F 88% 30.12 in 10.0 mi North 4.6 mph - N/A   Clear
6:15 PM 37.2 °F 33.6 °F 34.0 °F 88% 30.12 in 10.0 mi NNW 4.6 mph - N/A   Clear
6:35 PM 36.9 °F 34.3 °F 33.8 °F 89% 30.12 in 10.0 mi North 3.5 mph - N/A   Scattered Clouds
6:55 PM 37.4 °F 33.8 °F 33.8 °F 87% 30.12 in 10.0 mi North 4.6 mph - N/A   Overcast
7:15 PM 37.4 °F 34.9 °F 34.0 °F 87% 30.12 in 10.0 mi North 3.5 mph - N/A   Overcast
7:35 PM 37.4 °F 34.9 °F 34.2 °F 88% 30.11 in 10.0 mi North 3.5 mph - N/A   Overcast
7:55 PM 37.4 °F 31.4 °F 33.8 °F 87% 30.11 in 10.0 mi NNE 8.1 mph - N/A   Overcast
8:15 PM 37.4 °F 33.8 °F 34.0 °F 87% 30.11 in 10.0 mi NNE 4.6 mph - N/A   Overcast
8:55 PM 37.4 °F - 34.0 °F 87% 30.11 in 10.0 mi Calm Calm - N/A   Overcast
9:15 PM 37.4 °F 34.9 °F 34.2 °F 88% 30.10 in 10.0 mi NNE 3.5 mph - N/A   Overcast
9:35 PM 37.6 °F 33.1 °F 34.2 °F 87% 30.09 in 10.0 mi NNE 5.8 mph - N/A   Overcast
9:55 PM 37.4 °F 32.8 °F 34.2 °F 88% 30.07 in 10.0 mi NNE 5.8 mph - N/A   Overcast
10:15 PM 37.0 °F 32.4 °F 34.2 °F 89% 30.06 in 10.0 mi NNE 5.8 mph - N/A   Overcast
10:35 PM 36.9 °F 33.1 °F 34.5 °F 91% 30.06 in 10.0 mi NNE 4.6 mph - N/A   Overcast
10:55 PM 36.9 °F 34.3 °F 34.3 °F 91% 30.06 in 10.0 mi North 3.5 mph - N/A   Overcast
11:15 PM 36.9 °F 33.1 °F 34.3 °F 91% 30.04 in 10.0 mi NNE 4.6 mph - N/A   Overcast
11:35 PM 36.7 °F 34.1 °F 34.2 °F 91% 30.03 in 10.0 mi North 3.5 mph - N/A   Overcast
11:55 PM 36.5 °F 31.8 °F 34.5 °F 93% 30.01 in 10.0 mi NNE 5.8 mph - N/A   Overcast